Regional Weather Roundup
Issued by NWS

Home | Current Version | Previous Version | Graphics & Text | Print | Product List | Glossary On
Versions: 1 2 3 4 5 6 7 8 9 10 11 12 13 14 15 16 17 18 19 20 21 22 23 24 25 26 27 28 29 30 31 32 33 34 35 36 37 38 39 40 41 42 43 44 45 46 47 48 49 50
000
ASUS45 KPSR 030510
RWRAZ

ARIZONA REGIONAL HOURLY WEATHER ROUNDUP
NATIONAL WEATHER SERVICE PHOENIX AZ
1000 PM MST SAT MAY 02 2015

NOTE: FAIR INDICATES FEW OR NO CLOUDS BELOW 12,000 FEET WITH NO
SIGNIFICANT WEATHER AND/OR OBSTRUCTIONS TO VISIBILITY.

AZZ001>003-036-030600-
NORTHWEST ARIZONA

CITY           SKY/WX    TMP DP  RH WIND       PRES   REMARKS
BULLHEAD CITY  CLEAR     88  36  15 S13       29.70R
KINGMAN        CLEAR     69  32  25 S12       29.88R
$$

AZZ004>008-015-016-018-030600-
NORTH CENTRAL ARIZONA

CITY           SKY/WX    TMP DP  RH WIND       PRES   REMARKS
GRAND CANYON   PTCLDY    42  30  62 CALM      30.10R
WILLIAMS       CLOUDY    55  30  38 NE5       30.17S
PRESCOTT       PTCLDY    61  31  32 S7        30.00R
FLAGSTAFF      CLOUDY    54  31  41 CALM      30.13R
PAYSON         PTCLDY    64  28  25 CALM      30.04R
PAGE           PTCLDY    72  29  20 SW6       29.92R
$$

AZZ009>014-017-030600-
NORTHEAST ARIZONA

CITY           SKY/WX    TMP DP  RH WIND       PRES   REMARKS
WINSLOW        MOCLDY    61  30  31 SW3       30.02S
SAINT JOHNS    PTCLDY    54  35  48 S8        30.07R
WINDOW ROCK    CLOUDY    48  42  80 SW5       30.14R
SHOW LOW       PTCLDY    48  32  53 S9        30.12R
$$

AZZ023-030600-
GREATER PHOENIX AREA

CITY           SKY/WX    TMP DP  RH WIND       PRES   REMARKS
PHOENIX        MOCLDY    88  39  17 S7        29.77R
BUCKEYE        PTCLDY    81  36  19 SW8       29.78R
LUKE AFB       CLEAR     85  40  20 SW16      29.76R
DEER VALLEY    PTCLDY    84  38  19 SW16G22   29.79R
SCOTTSDALE     PTCLDY    86  37  17 SW7       29.81R
MESA-GATEWAY   MOCLDY    88  34  14 W9        29.80R
$$

AZZ027-028-030600-
SOUTHWEST MARICOPA COUNTY AND PINAL COUNTY

CITY           SKY/WX    TMP DP  RH WIND       PRES   REMARKS
CASA GRANDE    PTCLDY    82  37  20 W8        29.80R
GILA BEND      MOCLDY    83  40  21 SW12      29.78R
$$

AZZ503-504-507>509-030600-
SOUTHEAST ARIZONA

CITY           SKY/WX    TMP DP  RH WIND       PRES   REMARKS
TUCSON         CLEAR     78  40  25 W7        29.92R
DAVIS-MONTHAN  CLEAR     77  41  27 W9        29.90R
NOGALES        CLEAR     69  35  28 S3        30.00R
SIERRA VISTA   CLEAR     68  33  27 SW5       30.04R
DOUGLAS        CLEAR     61  40  45 S5        30.00R
SAFFORD        CLOUDY    79  33  19 N8        29.88R
$$

AZZ020-021-025-026-031-030600-
SOUTHWEST ARIZONA

CITY           SKY/WX    TMP DP  RH WIND       PRES   REMARKS
YUMA           CLEAR     80  41  24 S5        29.74R
$$

CAZ031-033-041-043-047-048-061-030600-
SOUTHERN CALIFORNIA

CITY           SKY/WX    TMP DP  RH WIND       PRES   REMARKS
DOWNTOWN L.A.  CLEAR     63  51  65 VRB3      29.86R
L.A. AIRPORT   CLEAR     59  53  80 S9        29.87R
SAN DIEGO      PTCLDY    63  56  78 S5        29.91R
BURBANK        CLEAR     68  48  48 SE8       29.85R
ONTARIO        CLEAR     63  49  60 W7        29.87R
RIVERSIDE      CLEAR     68  45  43 VRB6      29.86R
PALM SPRINGS   CLEAR     87  29  12 NW8       29.73R
EL CENTRO NAS  CLEAR     78  48  34 W9        29.72R
IMPERIAL       CLEAR     79  48  33 SW5       29.70R
BLYTHE         CLEAR     85  39  19 S14       29.72R
NEEDLES        CLEAR     88  35  15 SW10      29.72R
$$

NVZ020-UTZ003-030600-
SOUTHERN NEVADA-UTAH

CITY           SKY/WX    TMP DP  RH WIND       PRES   REMARKS
LAS VEGAS      CLEAR     81  28  14 S8        29.73R
SALT LAKE CITY CLOUDY    65  41  41 W6        29.87S
$$

NMZ009-TXZ055-030600-
NEW MEXICO-WEST TEXAS

CITY           SKY/WX    TMP DP  RH WIND       PRES   REMARKS
ALBUQUERQUE    PTCLDY    65  35  33 E7        30.05F
EL PASO        CLOUDY    82  27  13 SW10      29.92R
$$


........................KEY........................
SKY/WX - SKY CONDITION/WEATHER
TMP    - TEMPERATURE IN FAHRENHEIT
DP     - DEW POINT IN FAHRENHEIT
RH     - RELATIVE HUMIDITY IN PERCENT
WIND   - DIRECTION AND SPEED IN MILES PER HOUR (MPH)
VRB    - VARIABLE WIND DIRECTION
PRES   - MEAN SEA LEVEL PRESSURE IN INCHES OF MERCURY
         F - FALLING PRESSURE   R - RISING PRESSURE
         S - STEADY PRESSURE
VSB    - VISIBILITY IN MILES
HX     - HEAT INDEX IN FAHRENHEIT
WCI    - WIND CHILL INDEX IN FAHRENHEIT
TC     - TEMPERATURE IN CELSIUS WHICH IS ALSO KNOWN AS
         TEMPERATURE IN CENTIGRADE
AFB    - AIR FORCE BASE
         LUKE AFB IS LUKE AIR FORCE BASE
         DAVIS-MONTHAN IS DAVIS-MONTHAN AIR FORCE BASE
NAS    - NAVAL AIR STATION
         EL CENTRO NAS IS EL CENTRO NAVAL AIR STATION
N/A    - NOT AVAILABLE




USA.gov is the U.S. government's official web portal to all federal, state and local government web resources and services.